APG218 RPVE-RPLL

Flight info

Callsign APG218
Flight time 0h 38m
Altitude 25000
Route MINO8A MINOR B473 LAIYA LAIY3R
Aircraft A320/L-V/N

Departure

Time 2026-05-08 07:40
Airport Godofredo P. Ramos Airport (RPVE)

Arrival

Time 2026-05-08 08:18
Airport Ninoy Aquino International Airport (RPLL)
Time Latitude Longitude Altitude Speed Heading
2026-05-08 07:27 11.92638 121.96345 12 ft 0 kts 153°
2026-05-08 07:31 11.92639 121.96345 12 ft 1 kts 153°
2026-05-08 07:32 11.92651 121.96338 12 ft 2 kts 152°
2026-05-08 07:32 11.92665 121.96331 12 ft 2 kts 177°
2026-05-08 07:32 11.92680 121.96335 12 ft 2 kts 216°
2026-05-08 07:32 11.92686 121.96342 12 ft 0 kts 240°
2026-05-08 07:33 11.92690 121.96349 12 ft 0 kts 244°
2026-05-08 07:35 11.92685 121.96339 12 ft 3 kts 241°
2026-05-08 07:35 11.92669 121.96309 12 ft 6 kts 243°
2026-05-08 07:36 11.92643 121.96258 12 ft 9 kts 243°
2026-05-08 07:36 11.92636 121.96214 12 ft 6 kts 299°
2026-05-08 07:36 11.92678 121.96186 12 ft 8 kts 333°
2026-05-08 07:36 11.92733 121.96157 12 ft 9 kts 332°
2026-05-08 07:37 11.92792 121.96124 12 ft 8 kts 314°
2026-05-08 07:37 11.92785 121.96062 12 ft 10 kts 243°
2026-05-08 07:37 11.92749 121.95989 12 ft 12 kts 243°
2026-05-08 07:37 11.92707 121.95905 12 ft 14 kts 243°
2026-05-08 07:38 11.92305 121.95101 12 ft 14 kts 234°
2026-05-08 07:38 11.92246 121.95050 12 ft 9 kts 221°
2026-05-08 07:38 11.92254 121.95013 12 ft 5 kts 357°
2026-05-08 07:38 11.92274 121.95041 12 ft 1 kts 63°
2026-05-08 07:39 11.92276 121.95045 12 ft 2 kts 62°
2026-05-08 07:39 11.92405 121.95300 13 ft 81 kts 63°
2026-05-08 07:39 11.92771 121.96030 24 ft 146 kts 64°
2026-05-08 07:39 11.93215 121.96948 571 ft 152 kts 67°
2026-05-08 07:40 11.93650 121.97935 1268 ft 159 kts 64°
2026-05-08 07:40 11.94171 121.98969 1876 ft 170 kts 62°
2026-05-08 07:40 11.94757 122.00100 2238 ft 191 kts 62°
2026-05-08 07:40 11.95401 122.01352 2676 ft 208 kts 62°
2026-05-08 07:41 11.96184 122.02627 3367 ft 215 kts 47°
2026-05-08 07:41 11.97393 122.03524 4168 ft 218 kts 31°
2026-05-08 07:41 11.98757 122.04216 4880 ft 223 kts 29°
2026-05-08 07:41 12.00144 122.04903 5585 ft 227 kts 30°
2026-05-08 07:42 12.01568 122.05615 6298 ft 231 kts 29°
2026-05-08 07:42 12.03019 122.06343 7026 ft 233 kts 29°
2026-05-08 07:42 12.04475 122.07079 7752 ft 235 kts 29°
2026-05-08 07:42 12.05936 122.07818 8458 ft 237 kts 29°
2026-05-08 07:43 12.07400 122.08559 9124 ft 240 kts 28°
2026-05-08 07:43 12.08896 122.09317 9793 ft 242 kts 28°
2026-05-08 07:43 12.10410 122.10083 10453 ft 244 kts 28°
2026-05-08 07:43 12.11936 122.10850 11077 ft 247 kts 28°
2026-05-08 07:44 12.13489 122.11628 11698 ft 250 kts 28°
2026-05-08 07:44 12.15039 122.12409 12292 ft 253 kts 28°
2026-05-08 07:44 12.16620 122.13206 12896 ft 256 kts 28°
2026-05-08 07:44 12.18236 122.14022 13505 ft 258 kts 28°
2026-05-08 07:45 12.19856 122.14840 14116 ft 259 kts 28°
2026-05-08 07:45 12.21474 122.15659 14697 ft 262 kts 28°
2026-05-08 07:45 12.23103 122.16482 15266 ft 264 kts 28°
2026-05-08 07:45 12.24692 122.17287 15811 ft 266 kts 28°
2026-05-08 07:46 12.26353 122.18128 16369 ft 268 kts 28°
2026-05-08 07:46 12.28017 122.18973 16906 ft 270 kts 28°
2026-05-08 07:46 12.29710 122.19832 17432 ft 272 kts 29°
2026-05-08 07:46 12.31419 122.20699 17935 ft 275 kts 28°
2026-05-08 07:47 12.33142 122.21574 18428 ft 279 kts 28°
2026-05-08 07:47 12.34911 122.22444 18922 ft 282 kts 22°
2026-05-08 07:47 12.36864 122.22762 19391 ft 290 kts 356°
2026-05-08 07:47 12.38810 122.22172 19886 ft 298 kts 332°
2026-05-08 07:48 12.40535 122.21017 20342 ft 302 kts 328°
2026-05-08 07:48 12.42294 122.19767 20755 ft 308 kts 327°
2026-05-08 07:48 12.44044 122.18527 21196 ft 311 kts 327°
2026-05-08 07:48 12.45842 122.17261 21652 ft 313 kts 327°
2026-05-08 07:49 12.47665 122.15984 22102 ft 316 kts 327°
2026-05-08 07:49 12.49476 122.14721 22548 ft 319 kts 327°
2026-05-08 07:49 12.51314 122.13440 22988 ft 322 kts 327°
2026-05-08 07:49 12.53166 122.12150 23417 ft 325 kts 327°
2026-05-08 07:50 12.55001 122.10873 23836 ft 328 kts 327°
2026-05-08 07:50 12.56868 122.09575 24256 ft 331 kts 327°
2026-05-08 07:50 12.58790 122.08238 24676 ft 334 kts 327°
2026-05-08 07:50 12.60724 122.06894 25088 ft 337 kts 326°
2026-05-08 07:51 12.62673 122.05540 25497 ft 340 kts 326°
2026-05-08 07:51 12.64662 122.04157 25789 ft 348 kts 326°
2026-05-08 07:51 12.66706 122.02734 25824 ft 363 kts 326°
2026-05-08 07:51 12.68829 122.01257 25830 ft 378 kts 326°
2026-05-08 07:52 12.71054 121.99708 25835 ft 393 kts 326°
2026-05-08 07:52 12.73316 121.98134 25841 ft 407 kts 326°
2026-05-08 07:52 12.75695 121.96478 25842 ft 421 kts 326°
2026-05-08 07:52 12.78136 121.94778 25840 ft 434 kts 326°
2026-05-08 07:53 12.80640 121.93034 25835 ft 442 kts 326°
2026-05-08 07:53 12.83206 121.91246 25839 ft 444 kts 326°
2026-05-08 07:53 12.85767 121.89460 25843 ft 448 kts 326°
2026-05-08 07:53 12.88315 121.87684 25837 ft 451 kts 326°
2026-05-08 07:54 12.90878 121.85896 25624 ft 451 kts 326°
2026-05-08 07:54 12.93491 121.84073 25379 ft 448 kts 326°
2026-05-08 07:54 12.96026 121.82302 25137 ft 445 kts 326°
2026-05-08 07:54 12.98584 121.80516 24893 ft 443 kts 326°
2026-05-08 07:55 13.01133 121.78737 24650 ft 441 kts 326°
2026-05-08 07:55 13.03675 121.76962 24404 ft 441 kts 326°
2026-05-08 07:55 13.06213 121.75188 24164 ft 441 kts 326°
2026-05-08 07:55 13.08730 121.73430 23919 ft 439 kts 326°
2026-05-08 07:56 13.11233 121.71681 23677 ft 437 kts 327°
2026-05-08 07:56 13.13750 121.69932 23431 ft 435 kts 327°
2026-05-08 07:56 13.16249 121.68194 23187 ft 433 kts 327°
2026-05-08 07:56 13.18764 121.66440 22941 ft 431 kts 327°
2026-05-08 07:57 13.21205 121.64735 22699 ft 428 kts 327°
2026-05-08 07:57 13.22002 121.64178 22621 ft 428 kts 327°
2026-05-08 07:58 13.33660 121.56017 21465 ft 421 kts 327°
2026-05-08 07:58 13.36033 121.54353 21233 ft 420 kts 327°
2026-05-08 07:58 13.38405 121.52689 20994 ft 418 kts 327°
2026-05-08 07:59 13.40779 121.51024 20732 ft 417 kts 327°
2026-05-08 07:59 13.44692 121.48276 20186 ft 415 kts 327°
2026-05-08 07:59 13.47866 121.46045 19585 ft 411 kts 327°
2026-05-08 08:00 13.50180 121.44417 19114 ft 407 kts 327°
2026-05-08 08:00 13.52524 121.42767 18627 ft 404 kts 327°
2026-05-08 08:00 13.54822 121.41152 18137 ft 401 kts 327°
2026-05-08 08:01 13.65547 121.33294 15757 ft 389 kts 325°
2026-05-08 08:02 13.67735 121.31647 15294 ft 386 kts 325°
2026-05-08 08:02 13.69891 121.30027 14842 ft 383 kts 326°
2026-05-08 08:02 13.72055 121.28406 14390 ft 379 kts 325°
2026-05-08 08:02 13.74171 121.26825 13954 ft 376 kts 326°
2026-05-08 08:03 13.76288 121.25244 13474 ft 373 kts 325°
2026-05-08 08:03 13.78379 121.23682 13022 ft 370 kts 325°
2026-05-08 08:03 13.80456 121.22131 12577 ft 367 kts 325°
2026-05-08 08:03 13.82509 121.20598 12101 ft 364 kts 326°
2026-05-08 08:04 13.84549 121.19074 11644 ft 362 kts 326°
2026-05-08 08:04 13.86592 121.17548 11187 ft 360 kts 326°
2026-05-08 08:04 13.88596 121.16052 10733 ft 357 kts 326°
2026-05-08 08:04 13.90592 121.14559 10426 ft 349 kts 326°
2026-05-08 08:05 13.92520 121.13117 10308 ft 334 kts 326°
2026-05-08 08:05 13.94365 121.11737 10215 ft 319 kts 326°
2026-05-08 08:05 13.96115 121.10429 10130 ft 305 kts 326°
2026-05-08 08:05 13.97792 121.09173 10047 ft 292 kts 326°
2026-05-08 08:06 13.99992 121.07530 9632 ft 288 kts 327°
2026-05-08 08:06 14.01052 121.06739 9407 ft 288 kts 327°
2026-05-08 08:06 14.03208 121.05132 8975 ft 285 kts 327°
2026-05-08 08:06 14.04287 121.04327 8759 ft 284 kts 327°
2026-05-08 08:07 14.05892 121.03127 8432 ft 282 kts 326°
2026-05-08 08:07 14.07464 121.01950 8140 ft 280 kts 326°
2026-05-08 08:07 14.09025 121.00782 7809 ft 279 kts 326°
2026-05-08 08:07 14.11122 120.99215 7387 ft 276 kts 327°
2026-05-08 08:08 14.12163 120.98442 7188 ft 275 kts 327°
2026-05-08 08:08 14.13714 120.97289 6883 ft 274 kts 326°
2026-05-08 08:08 14.15754 120.95766 6611 ft 265 kts 326°
2026-05-08 08:08 14.16734 120.95035 6589 ft 255 kts 328°
2026-05-08 08:09 14.18212 120.94064 6429 ft 246 kts 332°
2026-05-08 08:09 14.19681 120.93189 6163 ft 244 kts 333°
2026-05-08 08:09 14.21146 120.92329 5908 ft 241 kts 333°
2026-05-08 08:09 14.22609 120.91466 5643 ft 239 kts 333°
2026-05-08 08:10 14.24064 120.90608 5375 ft 238 kts 333°
2026-05-08 08:10 14.25495 120.89761 5122 ft 238 kts 333°
2026-05-08 08:10 14.26929 120.88912 5006 ft 237 kts 333°
2026-05-08 08:10 14.28388 120.88055 4880 ft 239 kts 333°
2026-05-08 08:11 14.29838 120.87217 4653 ft 238 kts 333°
2026-05-08 08:11 14.31288 120.86379 4413 ft 237 kts 334°
2026-05-08 08:11 14.33211 120.85270 4079 ft 236 kts 334°
2026-05-08 08:11 14.34161 120.84721 3907 ft 236 kts 334°
2026-05-08 08:12 14.35597 120.83890 3656 ft 236 kts 333°
2026-05-08 08:12 14.37037 120.83057 3405 ft 235 kts 334°
2026-05-08 08:12 14.38535 120.82406 3102 ft 231 kts 358°
2026-05-08 08:12 14.40347 120.83094 3005 ft 201 kts 51°
2026-05-08 08:13 14.40891 120.83850 3023 ft 197 kts 59°
2026-05-08 08:13 14.41546 120.85044 3108 ft 184 kts 62°
2026-05-08 08:13 14.42136 120.86184 2875 ft 178 kts 63°
2026-05-08 08:13 14.42722 120.87290 2659 ft 171 kts 62°
2026-05-08 08:14 14.43478 120.88675 2385 ft 161 kts 62°
2026-05-08 08:14 14.44012 120.89636 2179 ft 147 kts 62°
2026-05-08 08:14 14.44352 120.90245 2059 ft 145 kts 62°
2026-05-08 08:14 14.44853 120.91142 1896 ft 145 kts 62°
2026-05-08 08:15 14.45523 120.92345 1695 ft 142 kts 62°
2026-05-08 08:15 14.45846 120.92924 1577 ft 138 kts 63°
2026-05-08 08:15 14.46317 120.93767 1379 ft 134 kts 64°
2026-05-08 08:15 14.46625 120.94321 1270 ft 134 kts 64°
2026-05-08 08:16 14.46776 120.94596 1222 ft 134 kts 62°
2026-05-08 08:16 14.47711 120.96276 876 ft 137 kts 65°
2026-05-08 08:16 14.48194 120.97144 711 ft 140 kts 63°
2026-05-08 08:16 14.48665 120.97994 530 ft 134 kts 61°
2026-05-08 08:17 14.49147 120.98833 380 ft 140 kts 64°
2026-05-08 08:17 14.49631 120.99721 233 ft 143 kts 64°
2026-05-08 08:17 14.50117 121.00599 83 ft 138 kts 63°
2026-05-08 08:17 14.50522 121.01338 81 ft 97 kts 61°
2026-05-08 08:18 14.50783 121.01726 81 ft 37 kts 45°
2026-05-08 08:18 14.50871 121.01788 81 ft 9 kts
2026-05-08 08:18 14.50903 121.01736 81 ft 5 kts 248°
2026-05-08 08:18 14.50891 121.01714 81 ft 4 kts 239°
2026-05-08 08:19 14.50885 121.01679 81 ft 6 kts 300°
2026-05-08 08:19 14.50912 121.01608 81 ft 9 kts 253°
2026-05-08 08:19 14.50888 121.01564 81 ft 11 kts 239°
2026-05-08 08:19 14.50859 121.01514 81 ft 2 kts 239°
2026-05-08 08:20 14.50853 121.01502 81 ft 3 kts 240°
2026-05-08 08:20 14.50838 121.01475 81 ft 3 kts 243°
2026-05-08 08:20 14.50850 121.01450 81 ft 5 kts 330°
2026-05-08 08:20 14.50885 121.01431 81 ft 6 kts 330°
2026-05-08 08:21 14.50912 121.01415 81 ft 2 kts 329°
2026-05-08 08:21 14.50925 121.01408 81 ft 0 kts 331°